DLH1MA LHBP-EDDM

Flight info

Callsign DLH1MA
Flight time 1h 7m
Altitude 34000
Route GILEP DCT ZOLKU DCT ARSIN DCT SITNI DCT BAGSI DCT MATIG DCT AMADI Q113 NAPSA NAPSA4A
Aircraft A320/M-SDE2E3FGIJ1LORWXYZ/HB1

Departure

Time 2026-05-04 17:58
Airport Budapest Liszt Ferenc International Airport (LHBP)

Arrival

Time 2026-05-04 19:05
Airport Munich Airport (EDDM)
Time Latitude Longitude Altitude Speed Heading
2026-05-04 16:56 47.43391 19.25800 481 ft 0 kts 227°
2026-05-04 17:47 47.43392 19.25802 481 ft 2 kts 227°
2026-05-04 17:47 47.43407 19.25825 477 ft 3 kts 223°
2026-05-04 17:47 47.43423 19.25848 478 ft 3 kts 230°
2026-05-04 17:47 47.43435 19.25874 476 ft 3 kts 253°
2026-05-04 17:48 47.43436 19.25903 477 ft 3 kts 296°
2026-05-04 17:48 47.43430 19.25918 476 ft 1 kts 312°
2026-05-04 17:48 47.43429 19.25920 476 ft 0 kts 312°
2026-05-04 17:51 47.43430 19.25918 478 ft 1 kts 312°
2026-05-04 17:51 47.43453 19.25880 479 ft 7 kts 313°
2026-05-04 17:51 47.43489 19.25824 478 ft 7 kts 313°
2026-05-04 17:52 47.43525 19.25765 480 ft 8 kts 312°
2026-05-04 17:52 47.43560 19.25718 482 ft 7 kts 337°
2026-05-04 17:52 47.43621 19.25760 480 ft 10 kts 42°
2026-05-04 17:52 47.43665 19.25820 482 ft 7 kts 42°
2026-05-04 17:53 47.43707 19.25875 481 ft 10 kts 42°
2026-05-04 17:53 47.43756 19.25941 485 ft 11 kts 42°
2026-05-04 17:53 47.43832 19.26043 488 ft 18 kts 42°
2026-05-04 17:53 47.43921 19.26162 485 ft 16 kts 43°
2026-05-04 17:54 47.43991 19.26257 492 ft 7 kts 42°
2026-05-04 17:54 47.44000 19.26270 488 ft 0 kts 43°
2026-05-04 17:56 47.44007 19.26278 485 ft 3 kts 43°
2026-05-04 17:56 47.44025 19.26304 493 ft 4 kts 45°
2026-05-04 17:56 47.44055 19.26367 494 ft 12 kts 65°
2026-05-04 17:56 47.44068 19.26491 490 ft 7 kts 85°
2026-05-04 17:57 47.44048 19.26557 485 ft 8 kts 132°
2026-05-04 17:57 47.43931 19.26743 486 ft 58 kts 133°
2026-05-04 17:57 47.43493 19.27451 490 ft 125 kts 132°
2026-05-04 17:57 47.42802 19.28524 769 ft 152 kts 136°
2026-05-04 17:58 47.42115 19.29732 1453 ft 156 kts 124°
2026-05-04 17:58 47.41622 19.31268 1960 ft 177 kts 120°
2026-05-04 17:58 47.41021 19.32969 2385 ft 196 kts 124°
2026-05-04 17:58 47.40279 19.34812 2821 ft 221 kts 124°
2026-05-04 17:59 47.39448 19.36857 3383 ft 243 kts 124°
2026-05-04 17:59 47.38551 19.39031 4220 ft 252 kts 127°
2026-05-04 17:59 47.35457 19.41447 5726 ft 268 kts 185°
2026-05-04 18:00 47.33705 19.40525 6656 ft 272 kts 216°
2026-05-04 18:00 47.32510 19.38355 7510 ft 279 kts 244°
2026-05-04 18:00 47.31859 19.35681 8485 ft 280 kts 251°
2026-05-04 18:00 47.31259 19.32926 9446 ft 283 kts 251°
2026-05-04 18:01 47.30648 19.30149 10337 ft 288 kts 250°
2026-05-04 18:01 47.29988 19.27238 10721 ft 311 kts 248°
2026-05-04 18:01 47.29047 19.24294 11301 ft 322 kts 240°
2026-05-04 18:02 47.26619 19.18619 12900 ft 332 kts 238°
2026-05-04 18:02 47.25769 19.15437 13672 ft 338 kts 259°
2026-05-04 18:02 47.25753 19.11944 14386 ft 344 kts 279°
2026-05-04 18:02 47.26224 19.08517 15114 ft 346 kts 281°
2026-05-04 18:03 47.26725 19.05033 15825 ft 349 kts 281°
2026-05-04 18:03 47.27236 19.01510 16535 ft 352 kts 281°
2026-05-04 18:03 47.27749 18.97946 17239 ft 356 kts 282°
2026-05-04 18:03 47.28260 18.94354 17931 ft 360 kts 281°
2026-05-04 18:04 47.28765 18.90763 18612 ft 362 kts 281°
2026-05-04 18:04 47.29282 18.87080 19237 ft 365 kts 281°
2026-05-04 18:04 47.30302 18.79735 20483 ft 370 kts 281°
2026-05-04 18:05 47.30817 18.76008 21053 ft 373 kts 281°
2026-05-04 18:05 47.31338 18.72239 21639 ft 376 kts 281°
2026-05-04 18:05 47.31862 18.68437 22183 ft 380 kts 281°
2026-05-04 18:05 47.32391 18.64602 22716 ft 383 kts 281°
2026-05-04 18:06 47.33458 18.56844 23811 ft 389 kts 281°
2026-05-04 18:06 47.33994 18.52924 24301 ft 390 kts 281°
2026-05-04 18:06 47.34525 18.49032 24758 ft 392 kts 281°
2026-05-04 18:07 47.35066 18.45061 25198 ft 395 kts 281°
2026-05-04 18:07 47.35606 18.41072 25622 ft 398 kts 281°
2026-05-04 18:07 47.36148 18.37043 26045 ft 401 kts 281°
2026-05-04 18:07 47.36689 18.32991 26487 ft 403 kts 281°
2026-05-04 18:08 47.37225 18.28970 26906 ft 406 kts 282°
2026-05-04 18:08 47.37772 18.24867 27346 ft 407 kts 282°
2026-05-04 18:08 47.38322 18.20735 27737 ft 411 kts 282°
2026-05-04 18:08 47.38874 18.16589 28148 ft 413 kts 282°
2026-05-04 18:09 47.39990 18.08214 28981 ft 417 kts 282°
2026-05-04 18:09 47.41108 17.99754 29771 ft 422 kts 282°
2026-05-04 18:10 47.41671 17.95482 30144 ft 425 kts 282°
2026-05-04 18:10 47.42235 17.91182 30458 ft 427 kts 282°
2026-05-04 18:10 47.42792 17.86907 30760 ft 430 kts 282°
2026-05-04 18:10 47.43354 17.82554 31084 ft 431 kts 282°
2026-05-04 18:11 47.43918 17.78192 31390 ft 433 kts 282°
2026-05-04 18:11 47.44484 17.73809 31704 ft 434 kts 282°
2026-05-04 18:11 47.45050 17.69416 31957 ft 433 kts 282°
2026-05-04 18:11 47.45608 17.65045 32000 ft 428 kts 282°
2026-05-04 18:12 47.46724 17.56291 32003 ft 444 kts 282°
2026-05-04 18:12 47.47878 17.47211 32002 ft 451 kts 282°
2026-05-04 18:13 47.49027 17.38077 31999 ft 452 kts 282°
2026-05-04 18:14 47.50743 17.24411 31991 ft 451 kts 281°
2026-05-04 18:14 47.51872 17.15265 31985 ft 451 kts 281°
2026-05-04 18:15 47.54101 16.97046 31971 ft 451 kts 281°
2026-05-04 18:16 47.55213 16.87908 31974 ft 450 kts 281°
2026-05-04 18:16 47.56309 16.78828 31979 ft 449 kts 281°
2026-05-04 18:17 47.59267 16.65724 31972 ft 447 kts 291°
2026-05-04 18:18 47.62640 16.52891 31959 ft 447 kts 291°
2026-05-04 18:18 47.64890 16.44288 31955 ft 447 kts 291°
2026-05-04 18:19 47.68259 16.31367 31952 ft 446 kts 291°
2026-05-04 18:19 47.70491 16.22747 31948 ft 447 kts 291°
2026-05-04 18:20 47.72712 16.14144 31947 ft 447 kts 291°
2026-05-04 18:20 47.74924 16.05536 31950 ft 447 kts 290°
2026-05-04 18:21 47.77142 15.96876 31950 ft 447 kts 290°
2026-05-04 18:21 47.79341 15.88263 31952 ft 447 kts 290°
2026-05-04 18:22 47.81526 15.79666 31964 ft 446 kts 290°
2026-05-04 18:22 47.83716 15.71022 31950 ft 444 kts 290°
2026-05-04 18:23 47.85887 15.62410 31954 ft 446 kts 290°
2026-05-04 18:23 47.88060 15.53760 31945 ft 448 kts 290°
2026-05-04 18:24 47.90244 15.45040 31947 ft 447 kts 289°
2026-05-04 18:24 47.91594 15.36106 31947 ft 445 kts 276°
2026-05-04 18:25 47.92363 15.26937 31936 ft 445 kts 276°
2026-05-04 18:25 47.93102 15.17749 31915 ft 446 kts 276°
2026-05-04 18:26 47.93464 15.13160 31754 ft 445 kts 276°
2026-05-04 18:26 47.93826 15.08571 31444 ft 446 kts 276°
2026-05-04 18:26 47.94194 15.03969 31141 ft 448 kts 276°
2026-05-04 18:26 47.94563 14.99332 30835 ft 451 kts 276°
2026-05-04 18:27 47.94933 14.94684 30537 ft 452 kts 276°
2026-05-04 18:27 47.95304 14.90016 30237 ft 454 kts 276°
2026-05-04 18:27 47.95670 14.85381 29945 ft 455 kts 276°
2026-05-04 18:27 47.96034 14.80682 29607 ft 456 kts 276°
2026-05-04 18:28 47.96395 14.75963 29268 ft 457 kts 276°
2026-05-04 18:28 47.96758 14.71246 28932 ft 458 kts 276°
2026-05-04 18:28 47.97123 14.66500 28601 ft 459 kts 276°
2026-05-04 18:28 47.97486 14.61761 28272 ft 460 kts 276°
2026-05-04 18:29 47.97849 14.56998 27950 ft 461 kts 276°
2026-05-04 18:29 47.98203 14.52282 27632 ft 462 kts 275°
2026-05-04 18:29 47.98559 14.47492 27315 ft 464 kts 275°
2026-05-04 18:29 47.98915 14.42699 27004 ft 465 kts 275°
2026-05-04 18:30 47.99629 14.33076 26387 ft 467 kts 275°
2026-05-04 18:30 47.99979 14.28310 26090 ft 468 kts 275°
2026-05-04 18:30 48.00333 14.23459 25790 ft 469 kts 275°
2026-05-04 18:31 48.00686 14.18601 25497 ft 469 kts 275°
2026-05-04 18:31 48.01031 14.13748 25210 ft 470 kts 275°
2026-05-04 18:31 48.01376 14.08869 24920 ft 471 kts 275°
2026-05-04 18:31 48.01715 14.04056 24644 ft 472 kts 275°
2026-05-04 18:32 48.02059 13.99170 24365 ft 473 kts 275°
2026-05-04 18:32 48.02404 13.94259 24054 ft 474 kts 275°
2026-05-04 18:32 48.02745 13.89388 23525 ft 465 kts 275°
2026-05-04 18:32 48.03077 13.84615 22911 ft 461 kts 275°
2026-05-04 18:33 48.03406 13.79855 22300 ft 460 kts 275°
2026-05-04 18:33 48.03735 13.75090 21686 ft 461 kts 275°
2026-05-04 18:33 48.04062 13.70309 21118 ft 462 kts 275°
2026-05-04 18:33 48.04383 13.65567 20535 ft 454 kts 274°
2026-05-04 18:34 48.04692 13.60979 20035 ft 446 kts 274°
2026-05-04 18:34 48.05000 13.56383 19572 ft 442 kts 274°
2026-05-04 18:34 48.05305 13.51820 19116 ft 438 kts 274°
2026-05-04 18:34 48.05605 13.47286 18668 ft 436 kts 274°
2026-05-04 18:35 48.05899 13.42785 18224 ft 433 kts 274°
2026-05-04 18:35 48.06185 13.38325 17720 ft 430 kts 274°
2026-05-04 18:35 48.06465 13.33928 17223 ft 427 kts 274°
2026-05-04 18:35 48.06748 13.29515 16731 ft 425 kts 274°
2026-05-04 18:36 48.07033 13.25106 16241 ft 422 kts 274°
2026-05-04 18:36 48.07311 13.20762 15760 ft 419 kts 273°
2026-05-04 18:36 48.07583 13.16474 15294 ft 416 kts 273°
2026-05-04 18:36 48.07854 13.12172 14831 ft 413 kts 273°
2026-05-04 18:37 48.08121 13.07905 14374 ft 411 kts 273°
2026-05-04 18:37 48.08384 13.03670 13923 ft 408 kts 273°
2026-05-04 18:37 48.08642 12.99444 13451 ft 406 kts 272°
2026-05-04 18:37 48.08813 12.96602 13116 ft 404 kts 272°
2026-05-04 18:38 48.09060 12.92487 12886 ft 401 kts 273°
2026-05-04 18:38 48.09344 12.88329 12904 ft 402 kts 274°
2026-05-04 18:38 48.09704 12.84175 12916 ft 401 kts 275°
2026-05-04 18:38 48.10112 12.80052 12919 ft 400 kts 275°
2026-05-04 18:39 48.10540 12.75938 12912 ft 400 kts 276°
2026-05-04 18:39 48.10960 12.71843 12497 ft 393 kts 275°
2026-05-04 18:39 48.11330 12.67843 11784 ft 389 kts 275°
2026-05-04 18:39 48.11686 12.63927 11521 ft 373 kts 275°
2026-05-04 18:40 48.12033 12.60108 11051 ft 367 kts 275°
2026-05-04 18:40 48.12372 12.56321 10891 ft 367 kts 275°
2026-05-04 18:40 48.12707 12.52527 10916 ft 367 kts 275°
2026-05-04 18:40 48.13040 12.48772 10464 ft 362 kts 275°
2026-05-04 18:41 48.13358 12.45161 10256 ft 346 kts 275°
2026-05-04 18:41 48.13670 12.41625 9820 ft 339 kts 275°
2026-05-04 18:41 48.13972 12.38137 9240 ft 336 kts 275°
2026-05-04 18:41 48.14264 12.34658 8639 ft 334 kts 275°
2026-05-04 18:42 48.14542 12.31204 8034 ft 333 kts 275°
2026-05-04 18:42 48.14807 12.27764 7420 ft 332 kts 275°
2026-05-04 18:42 48.15240 12.24403 6872 ft 333 kts 290°
2026-05-04 18:42 48.16474 12.21446 6321 ft 333 kts 313°
2026-05-04 18:43 48.18343 12.19539 6027 ft 333 kts 338°
2026-05-04 18:43 48.20608 12.18903 5980 ft 333 kts
2026-05-04 18:43 48.22816 12.19607 5929 ft 315 kts 21°
2026-05-04 18:43 48.24783 12.20852 5800 ft 299 kts 25°
2026-05-04 18:44 48.26645 12.22086 5672 ft 285 kts 25°
2026-05-04 18:44 48.27824 12.22867 5590 ft 275 kts 24°
2026-05-04 18:44 48.30235 12.23541 5424 ft 258 kts 358°
2026-05-04 18:44 48.32000 12.23335 5197 ft 251 kts 355°
2026-05-04 18:45 48.33712 12.23072 4951 ft 245 kts 355°
2026-05-04 18:45 48.35378 12.22799 4709 ft 241 kts 355°
2026-05-04 18:45 48.37030 12.22295 4457 ft 239 kts 335°
2026-05-04 18:45 48.38278 12.20739 4207 ft 238 kts 303°
2026-05-04 18:46 48.38789 12.18394 4039 ft 238 kts 270°
2026-05-04 18:46 48.38392 12.16032 3981 ft 230 kts 241°
2026-05-04 18:46 48.37550 12.14024 4001 ft 223 kts 235°
2026-05-04 18:46 48.36847 12.11972 3995 ft 221 kts 257°
2026-05-04 18:47 48.36651 12.09713 4008 ft 220 kts 263°
2026-05-04 18:47 48.36503 12.07519 4022 ft 202 kts 263°
2026-05-04 18:47 48.36357 12.05473 4004 ft 193 kts 263°
2026-05-04 18:47 48.36211 12.03490 3995 ft 189 kts 263°
2026-05-04 18:48 48.36065 12.01524 3994 ft 188 kts 263°
2026-05-04 18:48 48.35919 11.99565 3908 ft 188 kts 263°
2026-05-04 18:48 48.35773 11.97614 3714 ft 187 kts 263°
2026-05-04 18:48 48.35627 11.95670 3477 ft 187 kts 263°
2026-05-04 18:49 48.35483 11.93746 3244 ft 187 kts 263°
2026-05-04 18:49 48.35337 11.91802 2998 ft 187 kts 263°
2026-05-04 18:49 48.35191 11.89864 2753 ft 186 kts 264°
2026-05-04 18:49 48.35045 11.87930 2508 ft 185 kts 264°
2026-05-04 18:50 48.34900 11.86025 2263 ft 179 kts 264°
2026-05-04 18:50 48.34764 11.84230 2023 ft 166 kts 264°
2026-05-04 18:50 48.34640 11.82597 1813 ft 150 kts 265°
2026-05-04 18:50 48.34494 11.81055 1987 ft 155 kts 257°
2026-05-04 18:51 48.33980 11.79612 2775 ft 166 kts 222°
2026-05-04 18:51 48.32929 11.78730 3119 ft 188 kts 188°
2026-05-04 18:51 48.31553 11.78711 3489 ft 208 kts 173°
2026-05-04 18:51 48.30064 11.78912 4139 ft 217 kts 174°
2026-05-04 18:52 48.28545 11.79092 4776 ft 221 kts 175°
2026-05-04 18:52 48.26931 11.79292 4957 ft 253 kts 175°
2026-05-04 18:52 48.25115 11.79531 5002 ft 267 kts 174°
2026-05-04 18:52 48.23247 11.79779 5007 ft 269 kts 174°
2026-05-04 18:53 48.21384 11.80027 5004 ft 269 kts 174°
2026-05-04 18:53 48.19522 11.80277 5007 ft 269 kts 174°
2026-05-04 18:53 48.17730 11.80998 5007 ft 268 kts 150°
2026-05-04 18:53 48.16383 11.82846 5007 ft 269 kts 123°
2026-05-04 18:54 48.15769 11.85471 5006 ft 269 kts 95°
2026-05-04 18:54 48.15835 11.88285 5004 ft 271 kts 85°
2026-05-04 18:54 48.16021 11.91088 5003 ft 271 kts 85°
2026-05-04 18:54 48.16220 11.93906 5003 ft 271 kts 84°
2026-05-04 18:55 48.16589 11.96639 4998 ft 272 kts 67°
2026-05-04 18:55 48.18662 12.01353 4999 ft 260 kts 54°
2026-05-04 18:55 48.19697 12.03472 5001 ft 245 kts 54°
2026-05-04 18:56 48.20695 12.05511 4997 ft 241 kts 54°
2026-05-04 18:56 48.21679 12.07534 4998 ft 238 kts 55°
2026-05-04 18:56 48.22657 12.09542 5000 ft 238 kts 55°
2026-05-04 18:56 48.23628 12.11525 4999 ft 238 kts 54°
2026-05-04 18:57 48.24610 12.13540 4999 ft 238 kts 54°
2026-05-04 18:57 48.25585 12.15550 4998 ft 238 kts 55°
2026-05-04 18:57 48.26549 12.17528 4996 ft 237 kts 54°
2026-05-04 18:57 48.27528 12.19532 4992 ft 238 kts 54°
2026-05-04 18:58 48.28638 12.21351 4987 ft 234 kts 34°
2026-05-04 18:58 48.30131 12.22078 4992 ft 223 kts
2026-05-04 18:58 48.31673 12.21972 4964 ft 220 kts 355°
2026-05-04 18:58 48.33191 12.21739 4717 ft 218 kts 354°
2026-05-04 18:59 48.34681 12.21486 4481 ft 217 kts 351°
2026-05-04 18:59 48.36041 12.20564 4255 ft 216 kts 320°
2026-05-04 18:59 48.36931 12.18762 4056 ft 216 kts 292°
2026-05-04 18:59 48.37172 12.16548 3978 ft 217 kts 266°
2026-05-04 19:00 48.37007 12.14296 3999 ft 220 kts 264°
2026-05-04 19:00 48.36843 12.12057 4019 ft 205 kts 263°
2026-05-04 19:00 48.36692 12.09987 4007 ft 194 kts 263°
2026-05-04 19:00 48.36544 12.07989 4000 ft 190 kts 263°
2026-05-04 19:01 48.36399 12.06025 4005 ft 188 kts 263°
2026-05-04 19:01 48.36256 12.04093 4006 ft 188 kts 263°
2026-05-04 19:01 48.36110 12.02138 4007 ft 188 kts 263°
2026-05-04 19:01 48.35965 12.00185 3959 ft 188 kts 263°
2026-05-04 19:02 48.35819 11.98228 3776 ft 188 kts 263°
2026-05-04 19:02 48.35673 11.96280 3549 ft 187 kts 263°
2026-05-04 19:02 48.35527 11.94329 3314 ft 187 kts 263°
2026-05-04 19:02 48.35382 11.92403 3073 ft 187 kts 263°
2026-05-04 19:03 48.35236 11.90457 2829 ft 186 kts 264°
2026-05-04 19:03 48.35094 11.88580 2604 ft 175 kts 264°
2026-05-04 19:03 48.34961 11.86820 2364 ft 164 kts 264°
2026-05-04 19:03 48.34838 11.85201 2154 ft 149 kts 264°
2026-05-04 19:04 48.34723 11.83686 1949 ft 143 kts 265°
2026-05-04 19:04 48.34611 11.82217 1746 ft 140 kts 265°
2026-05-04 19:04 48.34502 11.80771 1563 ft 138 kts 265°
2026-05-04 19:04 48.34401 11.79393 1486 ft 119 kts 264°
2026-05-04 19:05 48.34325 11.78419 1485 ft 69 kts 263°
2026-05-04 19:05 48.34314 11.78036 1485 ft 29 kts 282°
2026-05-04 19:05 48.34376 11.77783 1483 ft 21 kts 293°
2026-05-04 19:05 48.34437 11.77573 1475 ft 21 kts 293°
2026-05-04 19:06 48.34448 11.77534 1482 ft 0 kts 294°
2026-05-04 19:07 48.34453 11.77519 1474 ft 6 kts 295°
2026-05-04 19:07 48.34481 11.77465 1480 ft 9 kts 320°
2026-05-04 19:07 48.34551 11.77434 1484 ft 11 kts 352°
2026-05-04 19:07 48.34625 11.77460 1474 ft 13 kts 62°
2026-05-04 19:08 48.34643 11.77632 1485 ft 19 kts 84°
2026-05-04 19:08 48.34658 11.77836 1485 ft 21 kts 83°
2026-05-04 19:08 48.34676 11.78066 1485 ft 23 kts 83°
2026-05-04 19:08 48.34696 11.78322 1475 ft 25 kts 83°
2026-05-04 19:09 48.34718 11.78594 1485 ft 27 kts 83°
2026-05-04 19:09 48.34741 11.78889 1478 ft 29 kts 84°
2026-05-04 19:09 48.34763 11.79201 1485 ft 31 kts 83°
2026-05-04 19:09 48.34783 11.79452 1472 ft 16 kts 83°
2026-05-04 19:10 48.34795 11.79614 1480 ft 13 kts 83°
2026-05-04 19:10 48.34821 11.79692 1480 ft 7 kts 25°
2026-05-04 19:10 48.34868 11.79692 1484 ft 6 kts 353°
2026-05-04 19:10 48.34908 11.79684 1480 ft 7 kts 353°
2026-05-04 19:11 48.34963 11.79668 1479 ft 9 kts 334°
2026-05-04 19:11 48.35023 11.79601 1483 ft 11 kts 339°
2026-05-04 19:11 48.35113 11.79581 1480 ft 15 kts 354°
2026-05-04 19:11 48.35229 11.79562 1485 ft 18 kts 354°
2026-05-04 19:12 48.35361 11.79540 1482 ft 20 kts 353°
2026-05-04 19:12 48.35561 11.79504 1485 ft 9 kts 354°
2026-05-04 19:12 48.35604 11.79538 1473 ft 7 kts 71°
2026-05-04 19:13 48.35611 11.79606 1485 ft 6 kts 84°
2026-05-04 19:13 48.35615 11.79664 1483 ft 5 kts 83°
2026-05-04 19:13 48.35619 11.79708 1475 ft 0 kts 83°